When you browse on this site, cookies collect data to enhance your experience and personalize the content and advertising you see.
Visit our Privacy Policy to learn more. By continuing to use the site, you agree to this use of cookies and data.
  • In Netherlands
  • List of Countries
  • For 7 days
  • Water Temperature
  • Weather Map
  • Weather Widgets
  • user-avatar
    Login

    Hourly Weather Shrewsbury

    Today, 19 September, Thursday

    Time Temperature Precipitation Wind Pressure Humidity
    00:00 +10°C° 0 mm 1 mps 767 mmHg 87%
    01:00 +10°C° 0 mm 1 mps 767 mmHg 87%
    02:00 +10°C° 0 mm 1 mps 767 mmHg 87%
    03:00 +9°C° 0 mm 0 mps 767 mmHg 87%
    04:00 +9°C° 0 mm 0 mps 767 mmHg 87%
    05:00 +9°C° 0 mm 0 mps 767 mmHg 87%
    06:00 +8°C° 0 mm 0 mps 767 mmHg 87%
    07:00 +10°C° 0 mm 0 mps 767 mmHg 81%
    08:00 +12°C° 0 mm 0 mps 767 mmHg 76%
    09:00 +14°C° 0 mm 0 mps 768 mmHg 70%
    10:00 +16°C° 0 mm 0 mps 768 mmHg 66%
    11:00 +17°C° 0 mm 0 mps 767 mmHg 63%
    12:00 +18°C° 0 mm 0 mps 767 mmHg 59%
    13:00 +19°C° 0 mm 0 mps 767 mmHg 59%
    14:00 +19°C° 0 mm 0 mps 767 mmHg 59%
    15:00 +19°C° 0 mm 0 mps 767 mmHg 59%
    16:00 +18°C° 0 mm 0 mps 766 mmHg 65%
    17:00 +16°C° 0 mm 0 mps 766 mmHg 70%
    18:00 +15°C° 0 mm 0 mps 766 mmHg 76%
    19:00 +14°C° 0 mm 0 mps 766 mmHg 79%
    20:00 +13°C° 0 mm 0 mps 766 mmHg 82%
    21:00 +12°C° 0 mm 0 mps 766 mmHg 85%
    22:00 +12°C° 0 mm 0 mps 766 mmHg 85%
    23:00 +12°C° 0 mm 0 mps 766 mmHg 86%

    Tomorrow, 20 September, Friday

    Time Temperature Precipitation Wind Pressure Humidity
    00:00 +11°C° 0 mm 0 mps 766 mmHg 86%
    01:00 +11°C° 0 mm 0 mps 766 mmHg 87%
    02:00 +12°C° 0 mm 1 mps 765 mmHg 88%
    03:00 +11°C° 0 mm 1 mps 765 mmHg 89%
    04:00 +11°C° 0 mm 1 mps 764 mmHg 89%
    05:00 +11°C° 0 mm 1 mps 764 mmHg 90%
    06:00 +10°C° 0 mm 1 mps 764 mmHg 91%
    07:00 +12°C° 0 mm 2 mps 764 mmHg 86%
    08:00 +14°C° 0 mm 2 mps 764 mmHg 82%
    09:00 +14°C° 0 mm 3 mps 763 mmHg 77%
    10:00 +17°C° 0 mm 3 mps 763 mmHg 73%
    11:00 +18°C° 0 mm 4 mps 762 mmHg 69%
    12:00 +19°C° 0 mm 5 mps 762 mmHg 66%
    13:00 +20°C° 0 mm 5 mps 761 mmHg 64%
    14:00 +20°C° 0 mm 5 mps 760 mmHg 63%
    15:00 +20°C° 0 mm 6 mps 759 mmHg 62%
    16:00 +19°C° 0 mm 5 mps 759 mmHg 66%
    17:00 +16°C° 0 mm 5 mps 758 mmHg 69%
    18:00 +15°C° 0 mm 4 mps 758 mmHg 73%
    19:00 +14°C° 0 mm 5 mps 758 mmHg 73%
    20:00 +13°C° 0 mm 5 mps 758 mmHg 73%
    21:00 +12°C° 0 mm 5 mps 758 mmHg 73%
    22:00 +12°C° 0 mm 5 mps 757 mmHg 76%
    23:00 +12°C° 0 mm 5 mps 757 mmHg 80%

    Day after tomorrow, 21 September, Saturday

    Time Temperature Precipitation Wind Pressure Humidity
    00:00 +10°C° 0 mm 5 mps 756 mmHg 83%
    01:00 +11°C° 0 mm 4 mps 755 mmHg 84%
    02:00 +11°C° 0 mm 4 mps 755 mmHg 85%
    03:00 +10°C° 0 mm 4 mps 754 mmHg 85%
    04:00 +10°C° 0 mm 4 mps 754 mmHg 85%
    05:00 +10°C° 0 mm 4 mps 753 mmHg 85%
    06:00 +10°C° 0 mm 4 mps 753 mmHg 85%
    07:00 +11°C° 0 mm 4 mps 752 mmHg 80%
    08:00 +13°C° 0 mm 5 mps 752 mmHg 74%
    09:00 +14°C° 0 mm 5 mps 752 mmHg 69%
    10:00 +16°C° 0 mm 5 mps 751 mmHg 66%
    11:00 +17°C° 0 mm 6 mps 751 mmHg 64%
    12:00 +19°C° 0 mm 6 mps 751 mmHg 62%
    13:00 +20°C° 0 mm 6 mps 750 mmHg 62%
    14:00 +21°C° 0 mm 6 mps 749 mmHg 63%
    15:00 +22°C° 0 mm 6 mps 749 mmHg 63%
    16:00 +21°C° 0 mm 5 mps 748 mmHg 68%
    17:00 +20°C° 0 mm 5 mps 748 mmHg 73%
    18:00 +19°C° 0 mm 4 mps 748 mmHg 77%
    19:00 +18°C° 0 mm 4 mps 748 mmHg 79%
    20:00 +18°C° 0 mm 4 mps 747 mmHg 80%
    21:00 +17°C° 0 mm 4 mps 747 mmHg 82%
    22:00 +17°C° 0 mm 4 mps 747 mmHg 83%
    23:00 +17°C° 0 mm 4 mps 746 mmHg 85%

    22 September, Sunday

    Time Temperature Precipitation Wind Pressure Humidity
    00:00 +15°C° 0 mm 4 mps 746 mmHg 86%
    01:00 +16°C° 0.1 mm 3 mps 746 mmHg 88%
    02:00 +16°C° 0.1 mm 3 mps 745 mmHg 91%
    03:00 +14°C° 0.1 mm 3 mps 745 mmHg 93%
    04:00 +14°C° 0 mm 3 mps 745 mmHg 94%
    05:00 +14°C° 0 mm 3 mps 744 mmHg 95%
    06:00 +14°C° 0 mm 3 mps 744 mmHg 96%
    07:00 +16°C° 0.4 mm 3 mps 744 mmHg 94%
    08:00 +17°C° 0.4 mm 4 mps 744 mmHg 92%
    09:00 +18°C° 0.4 mm 4 mps 744 mmHg 91%
    10:00 +18°C° 0.7 mm 4 mps 745 mmHg 88%
    11:00 +18°C° 0.7 mm 4 mps 745 mmHg 85%
    12:00 +19°C° 0.7 mm 4 mps 745 mmHg 83%
    13:00 +19°C° 0.1 mm 4 mps 745 mmHg 80%
    14:00 +19°C° 0.1 mm 4 mps 745 mmHg 77%
    15:00 +19°C° 0.1 mm 4 mps 745 mmHg 74%
    16:00 +18°C° 0.1 mm 4 mps 745 mmHg 78%
    17:00 +17°C° 0.1 mm 3 mps 745 mmHg 81%
    18:00 +16°C° 0.1 mm 2 mps 745 mmHg 85%
    19:00 +15°C° 0 mm 2 mps 745 mmHg 88%
    20:00 +14°C° 0 mm 2 mps 746 mmHg 90%
    21:00 +13°C° 0 mm 2 mps 746 mmHg 93%
    22:00 +13°C° 0 mm 2 mps 746 mmHg 93%
    23:00 +13°C° 0 mm 2 mps 747 mmHg 94%

    23 September, Monday

    Time Temperature Precipitation Wind Pressure Humidity
    00:00 +12°C° 0 mm 2 mps 747 mmHg 95%
    01:00 +12°C° 0 mm 2 mps 747 mmHg 95%
    02:00 +10°C° 0 mm 2 mps 748 mmHg 95%
    03:00 +10°C° 0 mm 2 mps 748 mmHg 95%
    04:00 +10°C° 0 mm 2 mps 748 mmHg 95%
    05:00 +10°C° 0 mm 3 mps 748 mmHg 95%
    06:00 +10°C° 0 mm 3 mps 749 mmHg 95%
    07:00 +12°C° 0 mm 3 mps 749 mmHg 90%
    08:00 +13°C° 0 mm 3 mps 749 mmHg 85%
    09:00 +14°C° 0 mm 3 mps 750 mmHg 81%
    10:00 +16°C° 0 mm 3 mps 750 mmHg 75%
    11:00 +17°C° 0 mm 3 mps 750 mmHg 70%
    12:00 +18°C° 0 mm 3 mps 750 mmHg 64%
    13:00 +18°C° 0 mm 4 mps 749 mmHg 65%
    14:00 +18°C° 0 mm 4 mps 749 mmHg 66%
    15:00 +18°C° 0 mm 4 mps 749 mmHg 66%
    16:00 +18°C° 0 mm 4 mps 748 mmHg 72%
    17:00 +17°C° 0 mm 4 mps 748 mmHg 78%
    18:00 +15°C° 0 mm 4 mps 748 mmHg 84%
    19:00 +15°C° 0 mm 4 mps 748 mmHg 87%
    20:00 +14°C° 0 mm 4 mps 748 mmHg 90%
    21:00 +14°C° 0 mm 3 mps 748 mmHg 94%
    22:00 +14°C° 0.1 mm 3 mps 748 mmHg 94%
    23:00 +14°C° 0.1 mm 3 mps 748 mmHg 95%

    24 September, Tuesday

    Time Temperature Precipitation Wind Pressure Humidity
    00:00 +15°C° 0.1 mm 2 mps 748 mmHg 96%
    01:00 +15°C° 0 mm 2 mps 748 mmHg 97%
    02:00 +15°C° 0 mm 2 mps 748 mmHg 97%
    03:00 +15°C° 0 mm 2 mps 748 mmHg 97%
    04:00 +15°C° 0 mm 2 mps 747 mmHg 97%
    05:00 +14°C° 0 mm 3 mps 747 mmHg 97%
    06:00 +14°C° 0 mm 3 mps 746 mmHg 97%
    07:00 +15°C° 0 mm 4 mps 746 mmHg 94%
    08:00 +16°C° 0 mm 5 mps 745 mmHg 91%
    09:00 +17°C° 0 mm 6 mps 744 mmHg 88%
    10:00 +16°C° 1 mm 6 mps 743 mmHg 91%
    11:00 +16°C° 1 mm 6 mps 742 mmHg 93%
    12:00 +16°C° 1 mm 6 mps 741 mmHg 95%
    13:00 +15°C° 2.5 mm 7 mps 741 mmHg 93%
    14:00 +15°C° 2.5 mm 8 mps 741 mmHg 90%
    15:00 +13°C° 2.5 mm 10 mps 741 mmHg 88%
    16:00 +13°C° 0 mm 8 mps 741 mmHg 88%
    17:00 +14°C° 0 mm 6 mps 741 mmHg 89%
    18:00 +14°C° 0 mm 5 mps 742 mmHg 89%
    19:00 +13°C° 0 mm 4 mps 742 mmHg 91%
    20:00 +12°C° 0 mm 4 mps 742 mmHg 92%
    21:00 +12°C° 0 mm 3 mps 743 mmHg 94%
    22:00 +12°C° 0 mm 3 mps 742 mmHg 95%
    23:00 +12°C° 0 mm 2 mps 742 mmHg 95%
    Show more